Wind_Speed
43 46 41 36 37 39 40 34 37 37 32 25 25 24 24 22 19 17 20 16 16 16 16 15 14 12 11 10 10 10 9 10 10 7 6 6 6 7 10 10 9 12 16
42 47 43 36 36 36 34 35 39 34 27 25 25 24 26 25 17 19 20 16 17 15 15 14 13 12 11 11 11 10 10 11 10 9 7 8 9 7 8 12 11 11 14
41 43 40 38 35 33 35 37 34 26 26 27 26 26 29 23 20 20 18 15 13 14 14 12 10 11 10 9 9 10 11 13 12 11 9 11 12 11 14 11 13 13 14
36 39 37 37 35 34 36 32 25 27 28 29 26 28 28 22 22 20 18 12 13 13 13 10 9 10 9 9 8 8 10 12 13 14 12 12 13 14 16 11 11 13 14
31 37 34 35 32 32 33 28 27 27 28 28 27 31 26 23 25 20 14 13 14 14 12 9 9 10 10 10 9 8 9 12 14 15 16 15 15 16 17 19 15 15 15
19 32 35 32 33 33 32 30 29 27 28 28 32 30 27 25 22 15 14 15 14 14 11 8 9 10 10 10 9 9 12 14 16 18 19 17 17 17 16 16 15 18 17
10 21 30 34 36 34 31 28 27 28 29 31 33 29 26 23 18 16 14 13 15 11 11 7 8 9 10 9 9 11 11 12 15 15 15 16 15 18 19 19 17 18 19
11 21 27 32 32 29 26 27 29 29 32 33 32 28 26 22 21 17 14 12 10 11 11 8 8 9 9 10 11 11 10 10 13 16 16 10 10 10 14 15 17 18 17
7 15 25 28 27 27 31 32 31 31 33 35 30 27 24 23 23 20 16 14 13 14 11 9 9 10 10 11 13 10 12 9 11 10 11 13 12 11 17 15 18 20 19
9 16 21 22 25 32 33 33 31 36 36 31 27 24 23 22 19 17 15 12 15 14 11 10 9 9 10 10 9 10 13 9 10 11 9 14 15 14 15 15 15 19 19
10 14 18 25 28 33 36 30 35 35 32 29 27 24 21 18 18 17 14 12 12 12 11 10 8 7 7 6 6 8 12 12 12 10 9 11 14 18 18 17 16 16 13
12 15 20 27 37 36 34 36 34 32 31 29 27 24 21 18 16 15 13 12 11 10 9 9 7 5 6 10 8 11 10 9 10 9 8 12 15 16 18 18 17 15 14
2 8 22 35 37 34 35 36 34 32 30 28 27 23 20 17 16 15 14 12 11 10 10 8 7 9 10 12 9 7 6 8 8 8 9 13 16 15 17 18 16 16 15
7 10 18 31 34 33 33 33 32 30 29 27 24 20 17 17 16 16 15 14 11 9 10 10 10 12 12 12 11 10 7 4 6 7 10 11 13 15 18 20 19 16 15
5 17 20 35 34 34 33 30 27 26 23 23 20 17 17 16 14 13 13 13 11 10 9 10 13 16 16 14 11 10 7 1 4 7 10 11 11 12 14 15 16 17 15
28 28 38 38 35 32 30 28 24 21 17 11 11 12 13 11 11 13 14 12 11 11 11 9 14 16 16 14 13 12 7 2 4 8 11 11 11 10 14 14 16 15 14
40 42 38 37 34 31 29 26 25 20 16 14 14 14 11 9 10 16 15 12 10 10 10 9 14 17 16 16 12 10 7 5 6 8 10 10 10 13 14 14 15 15 14
35 36 36 34 32 30 27 24 24 24 23 20 18 17 16 12 11 15 15 13 11 10 11 10 13 19 17 13 15 12 8 6 6 7 9 9 9 10 12 14 15 17 15
31 29 31 28 26 24 23 23 23 23 22 21 22 19 17 15 13 13 14 10 10 10 11 11 14 17 19 16 14 11 9 7 6 7 7 8 10 9 11 11 10 13 14
26 29 27 26 24 23 23 25 23 22 21 20 19 20 15 14 14 13 15 11 9 8 11 12 11 15 17 18 15 12 10 9 6 6 6 6 8 9 13 13 12 13 13
25 24 24 22 21 21 24 24 22 21 22 20 19 17 15 13 11 11 11 9 7 8 12 13 11 12 13 15 15 13 10 8 6 4 5 6 7 9 10 11 11 11 15
21 24 25 22 21 20 21 21 21 21 20 20 19 16 13 12 15 14 12 10 10 10 10 11 13 14 13 13 16 15 12 9 8 6 6 8 9 9 9 11 12 12 14
24 25 25 22 20 19 19 19 20 20 21 20 17 16 16 18 18 14 10 11 10 11 12 13 13 13 13 12 13 13 11 10 9 7 4 4 7 8 8 10 10 12 13
22 25 23 20 19 18 19 21 21 21 21 19 18 19 20 21 19 15 12 11 10 11 12 15 14 13 12 13 12 11 10 10 8 7 6 6 7 8 10 11 10 10 11
21 23 22 20 20 19 21 23 23 22 20 20 21 23 23 21 18 14 12 12 11 10 10 12 11 11 12 12 11 9 7 6 6 4 5 6 7 8 9 9 10 12 12
21 20 21 21 20 21 22 24 23 22 22 21 23 24 20 18 16 14 13 13 13 13 12 12 12 10 9 8 7 6 6 4 4 1 2 3 3 3 2 2 3 4 5
Wind_Direction
259 244 248 249 237 241 242 231 220 226 232 231 233 227 220 225 221 202 205 206 207 214 226 241 237 233 235 230 229 231 235 249 253 263 275 234 219 205 198 189 185 189 188
252 240 242 241 235 238 231 214 218 225 226 231 228 223 219 221 209 201 211 209 214 221 232 226 227 228 230 227 228 231 239 240 250 262 263 216 202 184 185 186 182 188 192
239 232 237 231 229 228 217 216 218 217 227 224 220 217 218 214 194 205 210 204 219 219 213 213 224 223 223 221 221 232 242 235 243 254 255 216 201 186 171 164 178 182 182
225 221 226 222 223 223 213 213 215 222 223 217 214 214 211 201 194 204 197 204 200 203 202 210 221 224 220 219 223 231 239 236 237 242 238 223 205 198 195 185 180 181 174
212 214 218 216 218 211 210 210 214 216 215 211 214 203 202 190 195 193 197 198 202 198 199 209 226 225 219 222 227 233 241 244 239 233 224 212 203 189 194 194 193 178 171
196 209 207 204 199 204 200 201 205 206 209 211 199 195 188 184 185 191 198 205 209 194 195 214 233 232 228 224 225 249 260 250 244 234 217 214 205 195 192 190 188 172 154
181 187 192 200 194 187 191 196 204 203 197 191 188 183 180 178 179 178 172 177 181 193 201 231 245 231 223 226 259 275 255 244 233 225 221 219 216 209 201 192 195 190 182
199 186 173 179 183 187 194 197 188 186 181 184 179 176 174 177 175 167 175 186 187 201 216 237 243 229 228 244 265 270 237 247 214 205 201 228 232 224 211 205 195 188 182
191 193 184 185 185 190 185 179 179 180 178 173 171 171 175 175 175 185 189 201 211 214 225 245 237 237 241 258 270 233 218 228 199 188 204 206 200 210 206 199 192 191 186
164 188 191 198 192 183 179 177 181 170 165 162 166 171 174 178 181 195 200 213 215 222 234 237 233 238 252 260 239 219 211 215 195 214 221 221 199 194 194 201 206 197 197
189 190 204 202 193 180 169 170 167 165 162 165 167 171 177 183 187 196 207 217 226 233 233 221 220 240 247 210 190 209 209 203 199 206 215 186 178 179 194 197 205 211 223
121 182 189 197 178 172 169 162 165 166 167 167 170 171 172 182 187 197 205 209 214 215 207 203 204 209 169 147 137 135 147 175 194 206 199 177 178 184 187 192 202 207 216
256 126 183 179 168 165 161 160 164 168 168 168 171 173 179 184 193 194 194 199 193 190 191 189 185 171 161 162 156 161 177 184 201 212 198 189 186 186 193 197 201 205 207
74 127 180 172 163 162 162 165 167 169 171 174 177 181 184 188 190 188 189 188 186 185 182 183 179 166 168 167 167 167 172 196 204 206 190 186 188 196 199 203 200 200 205
260 194 162 174 166 162 165 166 171 176 181 181 186 188 189 188 191 192 192 185 187 180 177 180 172 174 175 173 174 173 179 210 213 178 168 179 191 202 197 189 193 192 207
141 166 183 168 165 163 167 167 171 175 177 183 190 187 177 175 174 178 175 175 180 186 183 186 179 184 184 182 181 176 171 199 160 166 165 182 188 180 175 177 181 188 197
158 160 164 164 168 168 171 170 167 167 162 162 166 164 165 166 189 174 167 171 181 186 194 195 191 192 186 184 189 171 170 180 167 165 174 179 183 184 187 195 200 198 195
168 164 163 167 169 170 172 170 167 163 163 165 166 158 156 150 160 170 170 182 193 196 199 210 201 190 192 182 172 164 170 169 164 166 179 187 192 190 192 201 204 204 203
170 173 175 170 168 168 171 168 168 167 168 168 164 161 158 161 173 174 183 199 201 200 193 190 187 193 180 179 174 170 166 164 153 170 177 187 198 209 197 199 205 188 185
165 175 175 166 164 166 168 169 169 172 173 172 170 167 170 180 183 184 183 182 187 185 186 178 184 181 186 186 174 170 171 182 182 171 163 179 187 190 195 205 205 204 202
170 168 165 163 163 169 170 171 171 172 172 169 164 169 177 187 177 176 171 148 153 173 177 174 184 188 187 195 188 190 180 186 188 197 214 209 197 200 208 210 215 222 213
170 164 167 167 166 164 166 170 171 170 169 165 162 163 162 160 155 149 144 137 127 134 158 177 179 195 198 202 204 192 187 199 209 213 226 225 215 219 221 219 220 220 220
169 171 169 166 163 157 156 161 166 165 162 163 165 160 150 149 153 156 156 143 142 147 151 154 162 168 168 172 182 187 193 210 209 204 208 207 212 207 208 207 211 213 222
178 173 165 159 155 150 152 155 156 157 162 164 161 153 151 154 158 159 156 145 150 150 152 150 152 152 156 164 169 179 175 175 191 212 204 227 215 208 197 193 204 216 231
180 174 162 158 152 150 151 154 158 160 162 163 163 158 157 153 155 157 164 157 164 156 147 148 143 146 149 151 156 162 153 158 173 185 224 216 209 207 217 234 241 246 251
184 174 165 158 154 155 155 158 160 163 166 164 162 164 161 157 156 161 167 166 166 160 162 151 147 151 149 150 146 140 147 167 221 261 96 84 111 132 131 150 217 230 240
Height
1359 1363 1369 1372 1376 1381 1387 1393 1402 1410 1416 1417 1423 1426 1429 1435 1437 1437 1445 1446 1447 1452 1456 1458 1459 1460 1462 1463 1464 1465 1467 1469 1469 1470 1471 1472 1472 1472 1474 1476 1478 1479 1482
1349 1353 1359 1363 1367 1371 1379 1388 1395 1404 1407 1411 1417 1420 1424 1429 1431 1437 1442 1442 1445 1450 1452 1454 1456 1457 1459 1460 1461 1463 1465 1466 1467 1468 1470 1471 1472 1472 1473 1475 1477 1480 1483
1336 1342 1349 1353 1359 1364 1373 1382 1390 1396 1401 1406 1409 1415 1421 1424 1428 1435 1438 1439 1443 1447 1449 1452 1452 1454 1456 1457 1459 1460 1463 1464 1465 1466 1468 1469 1471 1472 1473 1475 1477 1479 1482
1323 1330 1338 1344 1352 1360 1369 1378 1383 1389 1394 1399 1405 1411 1418 1421 1427 1431 1434 1437 1441 1444 1447 1448 1450 1452 1453 1455 1457 1458 1460 1462 1463 1464 1466 1468 1469 1471 1473 1474 1476 1478 1481
1311 1319 1328 1337 1346 1355 1364 1370 1377 1383 1388 1394 1400 1408 1414 1418 1423 1428 1431 1435 1439 1442 1444 1446 1448 1450 1451 1452 1454 1456 1458 1459 1461 1461 1463 1465 1467 1468 1470 1472 1475 1478 1481
1303 1311 1322 1331 1341 1349 1357 1363 1370 1376 1382 1389 1398 1404 1409 1415 1421 1425 1430 1433 1436 1439 1441 1444 1446 1447 1448 1450 1452 1454 1455 1456 1457 1458 1458 1462 1464 1466 1468 1470 1474 1477 1481
1302 1308 1316 1326 1335 1342 1350 1357 1364 1371 1379 1387 1394 1401 1406 1414 1419 1423 1428 1431 1434 1437 1440 1442 1444 1444 1446 1447 1449 1450 1451 1452 1453 1454 1456 1460 1463 1464 1467 1470 1472 1475 1478
1305 1311 1314 1324 1332 1339 1347 1354 1361 1369 1376 1384 1392 1398 1405 1412 1417 1422 1426 1430 1432 1435 1438 1440 1441 1442 1444 1445 1446 1447 1448 1448 1449 1451 1454 1459 1462 1464 1467 1470 1472 1475 1479
1305 1312 1318 1325 1331 1337 1345 1353 1361 1367 1376 1383 1391 1398 1404 1409 1415 1420 1424 1427 1431 1433 1436 1437 1438 1440 1441 1442 1443 1444 1445 1447 1447 1449 1453 1456 1459 1461 1465 1468 1471 1474 1478
1307 1314 1321 1330 1332 1338 1345 1354 1360 1368 1375 1383 1391 1398 1403 1409 1414 1418 1422 1425 1428 1431 1433 1434 1436 1437 1438 1439 1440 1441 1443 1446 1447 1450 1452 1453 1456 1459 1464 1467 1470 1473 1476
1312 1316 1323 1329 1333 1339 1347 1354 1362 1369 1376 1383 1390 1396 1402 1407 1412 1416 1421 1424 1426 1428 1430 1432 1433 1435 1436 1437 1438 1440 1442 1445 1448 1449 1450 1452 1454 1458 1462 1466 1469 1473 1476
1315 1318 1321 1327 1333 1341 1345 1354 1363 1369 1376 1382 1388 1394 1400 1406 1411 1415 1418 1421 1424 1426 1428 1430 1432 1433 1435 1436 1439 1440 1442 1445 1447 1449 1450 1452 1455 1458 1461 1465 1468 1471 1475
1317 1319 1323 1329 1333 1341 1347 1355 1363 1371 1376 1381 1388 1393 1399 1404 1409 1413 1416 1419 1421 1424 1426 1428 1431 1433 1435 1438 1440 1442 1443 1445 1447 1448 1449 1451 1454 1458 1461 1464 1467 1470 1473
1319 1321 1326 1334 1338 1346 1352 1358 1365 1371 1377 1383 1388 1394 1398 1403 1407 1411 1414 1417 1420 1422 1424 1427 1430 1433 1435 1438 1440 1442 1444 1445 1446 1447 1449 1451 1454 1456 1459 1462 1465 1469 1472
1312 1319 1321 1338 1344 1348 1355 1362 1367 1374 1380 1384 1389 1393 1398 1402 1406 1410 1413 1416 1419 1421 1424 1426 1429 1432 1434 1437 1440 1442 1444 1445 1445 1446 1448 1450 1452 1454 1456 1460 1464 1468 1471
1306 1316 1331 1341 1347 1352 1358 1363 1369 1376 1381 1386 1390 1395 1398 1403 1406 1409 1412 1415 1418 1420 1423 1425 1429 1432 1434 1437 1439 1442 1444 1445 1445 1446 1448 1450 1452 1454 1456 1459 1463 1467 1470
1315 1325 1333 1339 1346 1351 1358 1364 1368 1375 1381 1386 1391 1396 1400 1403 1406 1408 1412 1415 1418 1420 1422 1425 1428 1431 1433 1436 1438 1442 1443 1445 1446 1447 1449 1450 1452 1455 1457 1461 1464 1466 1469
1321 1326 1333 1339 1344 1351 1357 1363 1369 1374 1380 1386 1391 1395 1399 1403 1406 1409 1412 1415 1417 1419 1421 1423 1426 1429 1432 1435 1438 1441 1443 1445 1446 1448 1449 1450 1452 1454 1456 1459 1462 1464 1467
1321 1328 1333 1339 1345 1351 1359 1364 1371 1377 1382 1386 1390 1395 1399 1402 1406 1409 1412 1415 1416 1418 1420 1422 1425 1428 1432 1435 1438 1441 1443 1444 1446 1447 1448 1450 1452 1454 1456 1459 1461 1463 1466
1322 1327 1335 1341 1347 1354 1360 1366 1372 1377 1382 1386 1390 1394 1398 1402 1405 1407 1409 1414 1416 1418 1419 1422 1424 1428 1432 1435 1438 1440 1442 1444 1446 1447 1448 1450 1451 1453 1456 1459 1461 1464 1466
1326 1331 1339 1345 1351 1357 1362 1367 1372 1377 1381 1386 1390 1395 1399 1402 1405 1408 1411 1413 1416 1417 1419 1422 1426 1428 1431 1434 1437 1440 1442 1444 1446 1446 1447 1449 1451 1453 1455 1457 1460 1462 1463
1330 1337 1344 1349 1354 1358 1362 1367 1372 1377 1382 1386 1391 1396 1399 1402 1406 1410 1413 1415 1417 1418 1420 1423 1425 1428 1430 1432 1434 1438 1441 1443 1445 1446 1446 1447 1449 1451 1453 1455 1457 1460 1461
1335 1341 1347 1352 1356 1359 1363 1368 1373 1378 1383 1389 1393 1396 1399 1404 1409 1412 1413 1416 1416 1420 1421 1423 1425 1426 1429 1432 1433 1436 1439 1442 1443 1444 1445 1446 1447 1449 1451 1453 1455 1456 1459
1339 1343 1348 1352 1356 1361 1364 1369 1374 1380 1385 1390 1394 1397 1401 1405 1409 1413 1415 1418 1420 1422 1423 1425 1426 1428 1429 1431 1434 1436 1439 1440 1441 1442 1443 1445 1447 1448 1449 1451 1453 1455 1456
1340 1344 1348 1353 1358 1363 1367 1372 1377 1381 1386 1391 1394 1399 1403 1407 1411 1414 1416 1419 1422 1424 1426 1427 1429 1430 1432 1434 1436 1438 1438 1440 1440 1442 1443 1444 1445 1447 1448 1450 1451 1452 1453
1341 1346 1350 1355 1360 1365 1369 1374 1379 1384 1388 1392 1397 1402 1406 1409 1412 1415 1417 1420 1423 1425 1428 1429 1431 1433 1434 1436 1437 1438 1440 1440 1441 1441 1443 1443 1444 1445 1446 1447 1449 1449 1450